Regional Weather Roundup
Issued by NWS Jackson, KY

Home | Current Version | Previous Version | Graphics & Text | Print | Product List | Glossary On
Versions: 1 2 3 4 5 6 7 8 9 10 11 12 13 14 15 16 17 18 19 20 21 22 23 24 25 26 27
000
ASUS43 KJKL 170010
RWRJKL

EAST KENTUCKY HOURLY WEATHER ROUNDUP
NATIONAL WEATHER SERVICE JACKSON KY
800 PM EDT WED AUG 16 2017

NOTE: "FAIR" INDICATES FEW OR NO CLOUDS BELOW 12,000 FEET WITH
NO SIGNIFICANT WEATHER AND/OR OBSTRUCTIONS TO VISIBILITY.

* THESE REPORTS ARE NOT UNDER NWS QUALITY CONTROL AND MAY NOT
  REPORT WEATHER SUCH AS PRECIPITATION AND FOG.

KYZ079-080-083-085-087-088-110-112-115-119-120-170100
...EASTERN KENTUCKY...

CITY           SKY/WX    TMP DP  RH WIND       PRES   REMARKS
JACKSON        CLEAR     77  72  84 CALM      30.04R
6HR MIN TEMP:  75; 6HR MAX TEMP:  86; 6HR PCP:  0.05;

LONDON         CLEAR     83  71  67 W5        30.03R
6HR MIN TEMP:  74; 6HR MAX TEMP:  86; 6HR PCP:  0.11;

SOMERSET*      PTCLDY    81  70  69 W6        30.02S
MONTICELLO*    CLEAR     80  77  90 NW3       30.03R
6HR MIN TEMP:  80; 6HR MAX TEMP:  89;

WILLIAMSBURG*  CLEAR     82  73  74 CALM      30.02S
MIDDLESBORO*   PTCLDY    80  74  82 CALM      30.04R
6HR MIN TEMP:  80; 6HR MAX TEMP:  89;

HARLAN APT*    PTCLDY    72  70  94 CALM      30.07R
PIKE CO APT*     N/A     77  74  89 CALM      30.06S
BIG SANDY APT* CLEAR     78  74  88 CALM      30.04S
6HR MIN TEMP:  73; 6HR MAX TEMP:  87;

MOREHEAD APT*  CLEAR     79  70  73 CALM      30.03R
$$

KYZ035-036-041-042-044-050-067-078-099-170100
...CENTRAL KENTUCKY...

CITY           SKY/WX    TMP DP  RH WIND       PRES   REMARKS
MT STERLING*   CLEAR     81  72  74 CALM      30.03R
FLEMING/MASON* CLEAR     79  73  80 SE3       30.02R
DANVILLE*      CLOUDY    81  72  74 W3        30.02R
LEXINGTON      PTCLDY    84  71  65 SW3       30.00R
6HR MIN TEMP:  82; 6HR MAX TEMP:  88;

FRANKFORT      PTCLDY    84  70  62 SW5       29.98R
6HR MIN TEMP:  84; 6HR MAX TEMP:  89;

LOUISVILLE     CLOUDY    87  72  60 S12       29.96R HX  93
6HR MIN TEMP:  87; 6HR MAX TEMP:  93;

LEBANON*         N/A     77  73  88 CALM      30.01R
GLASGOW*       LGT RAIN  79  76  89 CALM      29.99S
BOWLING GREEN  CLOUDY    82  76  81 CALM      29.98F
6HR MIN TEMP:  79; 6HR MAX TEMP:  87; 6HR PCP:  0.16;

$$

KYZ091>093-OHZ055-061-077-WVZ005-015-034-035-042-170100
...SOUTHERN OHIO/WEST VIRGINIA...

CITY           SKY/WX    TMP DP  RH WIND       PRES   REMARKS
COVINGTON      MOCLDY    83  74  74 S6        29.98R
COLUMBUS       MOCLDY    83  72  69 E9        29.98R
DAYTON         CLOUDY    83  67  58 SE6       29.99R
WILMINGTON     MOCLDY    81  73  76 S3        29.99R
HUNTINGTON     PTCLDY    81  72  74 S6        30.00R
CHARLESTON     PTCLDY    80  72  76 CALM      30.01R
PINEVILLE*     CLOUDY    74  71  89 MISG      30.13R
BECKLEY        MOCLDY    76  66  71 SW7       30.11R
BLUEFIELD      CLEAR     73  66  78 W5        30.14R
LOGAN CO APT*  CLOUDY    75  68  78 CALM      30.06R
$$

VAZ002-007-008-TNZ017-027-036-066-071-170100
...SOUTHWEST VIRGINIA/EAST TENNESSEE...

CITY           SKY/WX    TMP DP  RH WIND       PRES   REMARKS
WISE*          CLOUDY    72  72 100 S5        30.14F
JONESVILLE*      N/A     75  72  88 CALM      30.08R
ABINGDON*      CLOUDY    78  73  86 CALM      30.10R
BRISTOL        MOCLDY    79  73  82 N3        30.06R
MORRISTOWN*    CLEAR     82  73  74 W6        30.04R
SEVIERVILLE*   CLEAR     84  72  65 W5        30.02S
KNOXVILLE      MOCLDY    82  70  66 SW8       30.02S
OAK RIDGE      CLEAR     84  70  62 SW3       30.04R
CROSSVILLE     CLEAR     80  72  76 SW3       30.08S
NASHVILLE      CLOUDY    87  73  62 S12       29.99R HX  94
$$

...KEY TO REMARKS...
VSB - VISIBILITY IN MILES
WCI - WIND CHILL INDEX
HX  - HEAT INDEX

$$




USA.gov is the U.S. government's official web portal to all federal, state and local government web resources and services.